Location: Albany
(35.0000°S, 118.0000°E)
Time: 08:57:34
(UTC-04:00)

Cosmos 1626 - Visible Passes

Search period start: 30 October 2014 00:00
Search period end: 08 November 2014 23:00
Orbit: 515 x 519 km, 82.5° (Epoch: 29 October)

Date Brightness Start Highest point End Pass type
(mag) Time Alt. Az. Time Alt. Az. Time Alt. Az.
31 Oct 5.6 16:30:23 10° SE 16:32:44 15° ESE 16:35:04 10° ENE visible
01 Nov 5.8 16:16:18 10° SE 16:18:03 13° ESE 16:19:48 10° E visible
02 Nov 6.1 15:02:45 10° ESE 15:03:22 10° ESE 15:03:58 10° E visible
07 Nov 2.8 15:22:09 10° S 15:26:02 64° E 15:29:51 10° NNE visible
08 Nov 3.2 15:07:30 10° S 15:11:19 51° E 15:15:04 10° NNE visible
